This is the latest recevied weather packets stored in our database for station/object WP3XM. If no packets are shown the sender has not sent any weather packets the latest 10 day(s).
| Time | Temp. | Humidity | Pressure | Rain* | Wind** | Luminosity | Snow |
|---|---|---|---|---|---|---|---|
| 1777470283 | 27.78° C | 77% | 1016.7 hPa | 0 mm | - | 476 W/m² | - |
| 1777469979 | 27.78° C | 77% | 1016.6 hPa | 0 mm | - | 512 W/m² | - |
| 1777469675 | 27.78° C | 78% | 1016.6 hPa | 0 mm | - | 585 W/m² | - |
| 1777469371 | 27.22° C | 81% | 1016.8 hPa | 0 mm | - | 531 W/m² | - |
| 1777469067 | 27.22° C | 83% | 1016.9 hPa | 0 mm | - | 498 W/m² | - |
| 1777468762 | 27.22° C | 84% | 1016.8 hPa | 0 mm | - | 393 W/m² | - |
| 1777468458 | 27.22° C | 83% | 1016.7 hPa | 0 mm | - | 273 W/m² | - |
| 1777468155 | 27.22° C | 83% | 1016.8 hPa | 0 mm | - | 351 W/m² | - |
| 1777467851 | 27.22° C | 85% | 1016.6 hPa | 0 mm | - | 365 W/m² | - |
| 1777467546 | 27.22° C | 84% | 1016.7 hPa | 0 mm | - | 274 W/m² | - |
| 1777467241 | 27.22° C | 84% | 1016.4 hPa | 0 mm | - | 165 W/m² | - |
| 1777466938 | 27.22° C | 87% | 1016.6 hPa | 0 mm | - | 410 W/m² | - |
| 1777466636 | 27.22° C | 89% | 1016.6 hPa | 0 mm | - | 715 W/m² | - |
| 1777466333 | 26.67° C | 92% | 1016.5 hPa | 0 mm | - | 539 W/m² | - |
| 1777466029 | 26.67° C | 92% | 1016.3 hPa | 0 mm | - | 487 W/m² | - |
| 1777465725 | 26.67° C | 93% | 1016.2 hPa | 0 mm | - | 445 W/m² | - |
| 1777465421 | 26.11° C | 95% | 1016.3 hPa | 0 mm | - | 337 W/m² | - |
| 1777465120 | 25.56° C | 95% | 1016.1 hPa | 0 mm | - | 475 W/m² | - |
| 1777464816 | 25.56° C | 95% | 1016 hPa | 0 mm | - | 478 W/m² | - |
| 1777464511 | 25.56° C | 96% | 1016.1 hPa | 0 mm | - | 131 W/m² | - |
| 1777464207 | 25.56° C | 96% | 1016.1 hPa | 0 mm | - | 498 W/m² | - |
| 1777463907 | 25.56° C | 96% | 1016.1 hPa | 0 mm | - | 441 W/m² | - |
| 1777463603 | 25° C | 97% | 1016.3 hPa | 0 mm | - | 474 W/m² | - |
| 1777463298 | 24.44° C | 98% | 1016.2 hPa | 0 mm | - | 479 W/m² | - |
| 1777462995 | 23.89° C | 98% | 1016.3 hPa | 0 mm | - | 522 W/m² | - |
* Rain latest hour (hover to see other rain measurements)
** Current wind speed in m/s (hover to see current wind gust speed)